星链-35672(STARLINK-35672)

导读

STARLINK-35672是美国太空探索技术公司(SpaceX)于2025年11月8日发射的星链(Starlink)低轨互联网通信卫星,属于星链全球覆盖阶段的组网卫星。星链项目旨在为全球提供高速低延迟宽带互联网服务,尤其覆盖偏远地区。该卫星继承了星链成熟技术,很可能搭载相控阵天线与激光星间链路,助力构建全球规模最大的低轨卫星通信星座,推动全球无缝互联。

基本信息
目录编号:
66394
目录名称:
STARLINK-35672
国际标识:
2025-257Q
轨道中心:
EARTH
卫星名称:
星链-35672
卫星全名:
星链-35672(STARLINK-35672)
卫星状态:
在轨 (已飞行217 天)
发射日期:
2025-11-08 UTC
国别 :
美国 (US)
星等 :
--
轨道信息
数据来源 国际轨道数据
星历时间: 2026-06-13T03:04:22+0800
14小时前
查看轨道信息
半长轴: 6840.842km
偏心率: 0.0001146
轨道倾角: 53.157°
近地点辐角 90.893°
升交点赤经 133.914°
平近点角 269.220°
近地点: 461.921km
远地点: 463.489km
周期: 93.848分钟
每日圈数: 15.343997
详细信息
固有亮度:
5
最大亮度:
2.5
卫星平台:
Starlink V1.0
覆盖范围:
全球
运营商:
太空探索技术公司
运营商所在国:
美国
制造商(研发单位):
太空探索技术公司
制造商所在国:
美国
使用方式:
暂无
卫星简介
Starlink 计划是 SpaceX 推出的全球卫星互联网项目,通过发射低轨道卫星,为全球尤其是偏远地区提供高速、低延迟的互联网服务。自 2019 年起,Starlink 已部署数千颗卫星,旨在缩小全球数字鸿沟,推动互联网普及。该项目还为军事、航空等行业提供通信支持,带来广泛经济效益。
2D轨道图
3D轨道图
轨道高度分析图
轨道倾角分析图
轨道综合分析图
查看轨道综合分析图